RH
27 27 30 27 32 31 42 90 92 78 76 71 86 89 91 81 75 94 91 76 73 83 88 79 82 90 88 93 101 102 99 85 64 47 45 45 46 48 44 41 40 43 44 40 43 42 28 17 18 43 68 54 23 13 12 11 12 17 28 35 34 34 34 34 34 34 33 33 32 32 32 31 31 29 31 36 44 51 52 53 54 55 53 52 52 51 49 46 45 46 52 58 61 57 50 42 39
23 22 27 25 28 35 60 104 90 71 70 71 85 87 88 81 81 96 95 89 94 92 78 77 89 97 98 99 101 103 102 85 60 48 47 43 45 46 40 39 36 42 44 39 46 41 22 15 19 46 69 48 20 12 11 11 13 22 33 34 34 36 34 35 35 34 32 32 31 31 33 36 38 34 34 34 41 52 56 60 61 63 60 54 52 51 48 43 39 36 36 39 46 53 58 56 51
18 19 21 24 36 39 66 105 76 54 69 82 89 91 96 97 96 98 101 98 100 96 80 90 99 98 98 88 92 99 95 78 59 53 49 42 45 43 37 38 37 49 49 35 44 46 28 18 18 49 68 41 17 10 11 12 15 28 34 33 35 35 34 36 34 32 31 31 31 33 38 41 40 38 39 37 42 54 60 65 68 70 68 57 50 48 39 33 33 31 31 30 31 34 42 52 58
14 17 15 23 50 55 64 78 56 50 70 86 94 100 100 94 86 74 90 102 100 101 87 90 96 92 82 67 78 88 85 75 66 61 51 42 42 41 40 37 38 51 52 32 36 51 37 19 18 50 66 35 13 10 11 12 20 31 32 34 34 32 34 34 31 30 31 31 34 40 43 44 44 44 43 39 46 63 68 69 70 69 67 53 43 41 33 40 52 49 42 34 29 27 27 33 44
12 15 14 19 37 46 49 45 37 43 50 72 94 95 90 81 70 55 71 92 88 85 74 65 68 65 62 76 94 93 89 83 75 66 54 46 41 41 41 35 37 44 47 33 31 49 40 19 19 51 64 31 10 10 11 14 24 32 32 34 31 31 33 30 29 29 30 32 40 49 48 48 49 47 42 38 49 68 72 68 64 58 51 40 35 31 37 64 80 66 45 31 26 28 28 26 28
12 12 14 17 26 32 35 33 35 41 38 61 86 75 72 79 85 74 64 75 78 77 78 65 56 50 55 85 99 93 94 91 79 67 60 54 46 44 41 34 34 35 38 33 30 45 40 20 22 53 62 26 9 11 11 16 26 32 32 31 28 30 30 28 29 29 34 37 48 58 50 47 51 49 42 40 51 64 64 60 53 45 35 28 28 23 44 84 92 75 51 33 25 23 28 29 27
13 12 14 14 21 26 25 28 33 42 42 54 72 66 70 87 100 96 71 77 95 94 100 94 85 77 71 83 90 93 96 91 75 67 66 59 55 51 43 35 33 33 33 32 29 41 40 22 25 55 59 21 8 12 12 19 27 32 31 29 27 29 28 28 29 32 41 45 55 60 49 47 55 56 47 44 50 53 53 54 47 38 29 23 24 19 45 86 93 90 79 60 47 37 32 31 29
15 14 14 14 17 19 18 23 27 37 50 57 68 74 86 98 99 102 86 84 100 91 88 93 98 102 97 92 94 100 93 80 70 72 73 64 61 54 48 37 32 34 29 29 30 37 40 25 28 57 55 17 8 12 12 21 29 32 29 26 26 28 28 28 29 37 48 55 64 62 53 52 57 59 47 43 46 44 44 46 39 28 23 19 21 18 36 74 88 92 93 82 78 79 71 62 54
15 15 15 15 16 17 16 21 24 29 47 61 68 73 87 105 100 92 87 91 101 90 84 84 82 89 96 99 102 99 83 70 72 81 77 66 59 52 50 38 33 35 25 28 30 34 38 28 33 60 51 13 9 12 13 25 30 32 28 24 26 27 27 27 30 41 54 66 75 71 68 62 53 54 46 42 41 41 39 32 25 19 18 17 18 17 23 50 71 77 81 80 82 93 96 94 90
15 15 15 15 16 16 17 19 22 25 36 49 58 63 74 100 98 83 89 98 94 89 97 89 73 78 85 99 104 85 67 65 76 80 69 60 56 52 51 41 38 33 24 27 27 31 37 30 37 61 47 11 9 12 15 27 31 33 27 23 26 26 26 27 30 43 61 73 81 78 77 68 45 41 43 41 39 37 33 23 18 17 16 16 16 18 17 26 45 54 58 64 69 78 84 86 86
15 16 15 15 16 15 17 17 18 21 28 37 47 55 64 87 88 83 98 96 84 89 102 87 75 90 96 101 93 72 65 66 74 70 57 57 61 60 54 45 39 29 24 25 25 34 38 32 43 62 40 9 10 12 18 29 32 32 24 24 25 25 26 26 30 43 64 73 82 81 74 62 35 29 35 36 37 32 30 23 17 17 16 16 16 17 17 18 28 36 42 54 57 56 62 68 68
14 16 16 15 16 16 15 15 17 18 22 27 37 42 55 86 89 84 93 95 95 99 102 91 86 98 100 102 90 73 65 58 62 56 50 63 70 67 54 44 35 25 26 25 31 41 36 36 52 61 31 7 11 12 21 30 33 31 22 24 24 26 24 24 29 37 58 67 78 85 68 48 28 23 27 30 34 31 36 33 22 19 17 16 16 16 17 18 23 30 45 64 55 36 39 56 65
13 13 15 15 15 15 14 14 15 16 17 21 29 32 48 86 96 84 84 93 102 98 90 81 86 102 102 103 94 71 54 49 51 44 52 68 71 65 49 39 30 27 30 28 40 44 36 44 61 59 24 7 12 12 23 30 33 31 22 24 25 26 23 24 26 31 51 59 76 86 60 38 26 20 23 26 30 32 40 39 28 24 20 16 16 16 16 17 20 24 39 55 44 25 28 43 57
14 12 13 14 15 15 15 14 14 14 14 17 23 26 48 87 94 76 68 74 85 85 76 60 58 82 100 105 86 57 44 44 42 42 56 60 59 57 41 30 24 26 29 33 48 45 39 51 67 56 18 7 12 13 25 31 34 30 21 23 26 26 24 24 24 33 48 50 69 75 46 34 26 19 23 25 27 29 35 31 27 25 20 17 16 16 17 17 18 19 26 33 28 24 29 34 42
15 14 13 12 14 14 15 14 14 14 13 15 17 17 39 76 78 64 66 66 70 76 77 78 65 60 82 92 64 42 40 40 44 50 52 44 47 46 30 22 19 20 30 48 55 43 43 58 67 47 14 8 11 15 27 32 34 29 21 23 26 27 27 25 26 38 43 42 56 52 35 34 26 21 23 23 25 27 29 25 22 22 19 17 16 16 16 17 18 18 20 23 24 25 28 26 32
15 15 14 12 12 12 14 14 14 14 14 14 16 14 24 48 49 54 77 67 62 81 87 99 95 73 68 61 41 33 37 42 49 48 38 35 41 37 27 25 20 21 44 66 53 37 48 63 63 35 9 9 11 18 29 32 34 26 20 23 27 30 29 30 32 37 36 35 39 33 30 31 24 22 19 19 26 28 26 21 19 20 19 18 17 18 17 17 18 18 17 19 20 22 24 23 30
15 15 15 14 12 11 11 13 14 13 15 14 15 16 19 31 33 48 77 59 57 93 102 100 100 87 64 41 31 30 38 45 45 36 31 36 40 37 36 35 32 39 68 74 44 35 51 65 57 24 8 10 11 23 30 34 33 22 19 22 27 31 31 31 32 31 31 29 26 25 28 27 23 19 17 21 25 25 21 18 18 19 19 19 18 18 19 19 19 19 18 17 17 18 21 19 22
15 15 15 14 13 12 11 11 14 13 14 15 15 16 16 23 25 38 58 53 68 96 98 99 100 90 63 35 29 31 40 41 34 32 34 40 40 37 33 35 43 58 78 70 41 37 53 65 47 15 9 10 13 26 32 35 29 19 18 21 26 31 31 29 28 28 27 23 20 22 26 27 24 20 21 23 23 23 22 22 22 21 22 21 20 20 21 20 20 21 19 17 17 16 17 16 17
14 14 14 14 12 11 10 9 12 14 14 14 14 15 15 18 21 32 41 40 68 92 93 101 97 77 49 29 30 36 37 31 28 32 34 38 34 26 21 27 46 61 70 62 42 38 55 63 35 10 10 9 17 29 33 35 24 17 19 20 26 30 29 27 26 27 23 19 18 21 29 32 26 23 24 24 27 29 26 25 25 25 26 24 24 24 23 22 21 22 20 19 20 18 18 18 18
12 13 12 11 11 10 9 9 10 13 14 14 15 15 16 17 18 27 34 29 48 76 89 93 75 50 33 28 34 35 29 23 24 28 32 32 23 18 17 24 44 59 63 54 40 42 59 54 23 9 9 10 22 30 34 31 19 17 18 19 25 28 28 26 26 25 20 19 21 24 31 30 26 27 27 29 35 32 27 28 28 27 27 26 26 25 23 22 23 24 24 24 25 24 25 24 24
9 9 9 8 9 8 8 8 9 11 12 13 14 16 16 18 19 21 26 27 31 42 52 54 42 30 29 33 35 31 24 20 23 28 30 24 17 17 19 25 42 60 62 47 40 50 56 40 16 9 8 13 25 32 34 25 17 19 18 19 24 27 27 26 26 23 20 22 25 26 27 27 27 29 30 35 38 34 33 31 28 28 27 26 25 24 24 24 26 28 29 30 30 29 29 29 29
6 6 6 7 7 7 8 8 9 10 11 12 12 15 16 16 19 19 19 24 27 28 28 28 27 27 32 36 32 24 20 20 24 28 24 17 18 24 27 31 45 62 55 41 47 55 47 27 13 9 9 17 29 35 31 20 18 20 18 19 21 25 26 25 25 22 23 27 28 28 27 29 30 30 32 37 38 38 37 32 29 28 26 26 25 26 27 28 30 31 32 33 33 33 32 32 33
6 6 6 6 6 7 8 8 8 9 9 11 11 12 14 15 17 17 17 21 26 28 26 25 27 32 38 36 26 21 21 21 24 22 15 21 38 47 45 44 54 60 48 44 55 54 40 22 11 9 11 22 32 34 26 18 19 20 18 18 19 24 25 24 24 23 26 30 31 31 31 34 32 31 33 35 38 37 33 30 28 26 26 27 28 28 29 30 31 32 32 32 32 33 33 34 34
6 6 6 6 7 7 7 8 8 8 9 9 10 11 11 12 13 14 16 20 25 26 26 30 36 40 38 28 19 24 29 25 23 16 16 40 67 72 62 62 65 54 45 54 58 49 36 20 9 9 15 26 34 31 21 17 20 19 18 16 18 23 23 23 24 25 28 30 33 33 35 42 37 34 36 34 35 32 28 28 27 27 28 28 28 29 29 30 30 31 31 31 31 31 32 33 34
7 6 6 6 6 7 7 7 7 7 8 8 9 10 10 11 12 14 16 19 23 26 34 42 43 35 25 18 17 26 33 31 24 15 23 53 74 73 67 69 61 46 51 61 56 45 31 16 9 10 19 32 34 26 19 18 20 19 16 15 17 19 21 24 25 27 29 29 32 32 38 47 40 36 40 35 31 29 27 27 27 28 28 27 28 27 28 29 29 30 30 30 31 32 33 34 35
9 9 8 8 7 8 7 7 8 7 7 8 9 9 9 10 11 14 19 23 26 38 54 55 41 24 14 15 18 22 25 26 19 17 32 53 62 60 59 56 44 45 60 61 52 40 24 13 9 12 24 34 32 23 17 19 20 17 16 15 15 17 22 25 25 28 31 30 32 34 39 45 38 35 38 35 30 29 27 28 28 28 27 26 26 26 27 28 28 29 30 31 32 33 34 36 37
10 10 10 10 10 10 10 10 10 9 8 7 7 8 9 10 14 20 24 28 40 61 73 62 41 22 13 13 14 17 19 21 21 26 41 53 55 49 47 38 33 53 66 59 51 33 17 12 9 16 29 34 28 20 17 19 18 16 16 15 15 19 24 26 26 29 32 31 32 33 36 37 35 33 35 34 31 28 28 29 28 27 27 26 26 27 27 28 29 30 31 32 33 34 36 37 38
10 10 11 10 11 12 13 14 14 14 12 10 9 9 12 15 19 25 27 39 64 84 83 64 41 19 11 11 11 14 16 22 28 34 44 53 49 41 39 30 35 64 69 59 49 24 14 13 10 20 32 33 25 17 18 18 17 16 15 16 17 22 25 25 26 29 31 32 32 33 34 35 34 33 32 33 32 29 29 29 28 27 27 27 28 28 29 30 31 31 33 33 34 35 36 37 39
12 12 12 10 11 12 13 15 15 17 16 16 16 16 20 21 25 38 49 66 85 89 80 63 38 17 10 9 9 11 14 25 34 36 43 49 43 38 37 30 44 71 70 60 44 17 14 15 11 24 34 31 21 17 18 17 16 16 15 17 19 24 24 24 28 29 30 32 33 33 34 35 34 33 32 32 32 30 30 29 29 29 28 28 29 30 31 32 32 33 34 35 35 36 37 38 39
14 13 13 12 11 11 12 13 13 17 20 20 19 22 28 29 44 74 88 89 89 80 71 56 34 18 10 9 11 11 16 31 37 36 43 47 39 38 36 32 51 73 69 58 36 12 13 15 13 27 35 27 19 17 17 16 16 15 16 18 21 24 23 25 29 28 31 33 33 34 34 35 35 34 32 31 32 31 30 30 29 30 30 30 31 31 32 32 34 34 35 36 36 37 38 39 40
13 13 13 13 12 11 12 11 12 16 22 24 25 35 50 58 73 98 101 91 81 71 61 43 26 17 10 11 12 13 23 35 37 37 44 45 36 38 38 35 52 68 62 48 25 9 11 13 17 31 35 24 18 18 17 15 15 14 17 20 23 25 23 27 30 28 31 34 33 34 34 35 36 35 33 31 31 31 30 30 30 31 31 31 33 34 35 35 36 36 37 38 37 38 39 40 41
11 11 12 12 11 12 13 13 11 13 23 33 40 52 72 88 96 100 95 82 68 55 44 28 18 15 11 11 11 17 27 33 36 36 42 43 35 39 42 39 49 56 47 31 14 9 10 12 20 34 34 22 17 18 16 15 14 14 18 22 25 25 23 27 31 30 31 34 34 34 35 36 36 35 34 32 31 31 30 30 31 32 32 34 37 39 43 45 46 47 47 46 44 42 41 41 41
11 11 11 10 10 12 13 14 13 12 20 32 45 57 70 88 96 90 78 62 44 33 24 16 14 14 11 11 13 19 22 24 32 33 39 43 33 39 45 41 42 39 27 16 9 9 10 13 24 36 33 20 18 18 15 15 14 14 19 23 25 25 24 26 31 32 31 33 34 35 36 36 36 35 34 33 32 32 32 33 34 35 36 39 42 46 49 51 51 53 54 55 56 55 53 50 48
12 11 10 9 9 11 12 14 13 14 16 20 30 44 54 68 75 64 47 32 22 17 13 12 15 15 12 13 16 20 17 18 26 27 35 42 32 36 42 34 29 21 13 10 8 9 9 13 27 36 30 19 18 18 15 15 13 14 19 23 24 25 24 24 29 32 33 33 33 35 37 36 37 36 36 36 36 37 36 36 37 38 39 39 40 41 42 42 42 45 48 52 55 59 61 59 53
10 9 9 9 9 9 11 11 12 13 15 14 17 23 28 35 37 30 21 15 13 12 12 12 14 14 13 15 17 19 17 16 21 22 32 42 32 30 35 24 17 13 9 10 9 10 9 13 28 34 25 19 19 18 16 14 13 15 18 22 24 25 26 27 29 31 35 37 33 32 34 36 37 36 38 38 39 39 39 38 38 37 35 33 31 30 30 31 31 33 37 41 45 49 52 53 49
10 10 9 9 9 9 9 10 11 12 14 14 14 14 15 15 15 14 13 12 13 13 13 13 12 13 12 13 16 19 20 16 18 20 29 42 33 24 27 20 13 11 11 13 11 10 8 12 29 30 19 18 20 19 17 14 13 15 17 20 23 27 30 32 29 29 38 45 45 40 33 33 35 35 37 37 38 38 36 35 33 32 30 28 27 26 26 26 27 28 29 31 35 39 44 47 46
11 12 11 10 10 10 10 10 11 12 13 13 13 13 14 13 11 12 12 12 13 12 12 13 12 12 12 12 14 17 21 17 16 20 27 40 35 22 21 17 13 11 13 16 13 10 8 13 30 28 16 18 20 19 18 15 14 15 17 19 24 31 36 37 31 30 40 48 52 53 43 33 30 31 32 33 33 32 31 31 30 30 28 27 26 25 25 25 25 25 25 26 27 30 35 40 44
11 12 12 12 11 11 10 10 11 12 13 12 12 12 14 14 11 11 12 11 12 12 12 13 12 12 12 12 12 13 17 17 17 19 25 38 39 24 16 15 14 11 14 19 15 11 7 13 31 26 15 19 20 19 18 15 15 15 17 18 23 31 34 37 37 35 42 46 47 54 55 40 28 29 29 29 30 29 30 32 31 31 29 27 26 24 24 24 23 23 23 24 25 25 27 32 38
11 12 12 13 13 11 10 10 11 12 13 12 11 12 13 13 11 10 11 10 11 12 12 12 12 12 12 12 13 12 13 16 19 18 20 35 42 30 17 14 15 12 16 22 18 12 7 13 30 25 14 18 19 19 19 15 15 16 17 18 20 23 23 30 40 41 42 46 46 49 55 47 37 36 34 32 32 30 32 33 31 30 29 28 29 28 25 22 22 22 21 22 23 24 25 25 28
10 12 13 14 14 12 11 11 11 12 12 11 10 11 11 12 11 10 10 10 11 11 11 12 12 12 13 13 14 13 12 14 19 19 17 26 40 38 23 14 16 14 16 24 21 13 7 12 29 25 13 17 19 19 20 17 15 16 17 17 18 20 18 23 38 43 41 44 46 44 47 47 43 41 40 39 35 32 33 32 30 29 30 35 42 42 31 22 21 21 21 22 22 23 23 23 23
10 11 13 15 14 13 12 10 10 11 11 11 9 10 11 12 13 11 10 10 10 10 10 11 11 12 13 14 14 15 14 13 16 18 16 19 32 41 31 17 15 14 16 26 25 15 8 12 29 29 15 16 20 19 20 17 15 16 17 17 18 20 21 22 30 38 40 41 42 42 44 44 43 43 44 42 36 32 32 29 29 29 33 45 54 52 37 23 20 21 21 21 22 23 23 23 23
9 11 13 14 14 13 11 9 10 11 11 12 10 10 11 12 13 12 10 10 10 11 11 10 11 12 14 14 15 15 15 14 14 15 15 16 24 38 40 26 16 14 18 25 26 18 9 12 28 32 18 15 19 19 21 18 16 17 18 19 19 20 26 26 24 27 31 36 39 42 45 44 43 46 47 45 38 32 29 28 29 29 38 52 56 53 41 26 20 21 21 21 22 22 22 22 23
10 13 14 14 12 12 10 9 10 11 12 12 11 11 11 11 13 13 11 11 11 11 11 10 11 13 13 13 14 15 15 15 14 14 13 14 19 30 42 38 23 15 19 25 25 19 11 10 25 34 22 14 17 18 20 19 16 17 19 18 18 20 27 30 28 25 22 26 32 34 40 42 41 44 46 44 38 32 29 29 28 30 43 55 52 51 45 30 21 21 21 21 21 21 21 21 21
14 16 15 13 12 11 10 9 10 11 12 11 10 11 10 11 13 14 13 12 11 11 11 11 11 12 12 12 14 15 15 16 15 15 13 13 15 21 35 46 37 20 17 25 24 18 13 9 17 32 27 15 17 18 18 20 17 16 17 16 17 21 27 29 27 28 23 21 24 25 30 35 35 37 40 38 33 30 29 30 29 31 44 53 48 48 49 36 24 21 21 21 20 20 19 19 19
15 14 14 13 12 10 9 8 9 10 11 9 10 11 11 12 13 14 13 12 13 13 12 12 12 11 11 11 13 14 15 17 16 16 15 13 14 17 25 43 51 35 19 22 25 18 14 10 11 28 32 18 15 19 17 20 19 15 16 16 17 22 28 27 23 28 27 22 22 24 25 28 29 30 32 32 30 27 27 29 29 30 42 53 46 43 49 43 29 23 22 21 20 20 19 18 19
15 12 12 13 11 9 8 7 8 9 8 9 10 11 11 12 13 13 13 16 19 17 13 12 11 11 11 11 12 14 14 16 17 16 17 15 13 15 19 33 53 52 31 20 25 21 14 11 9 22 35 24 14 18 18 17 18 15 15 17 17 20 28 28 23 25 27 24 23 23 24 24 25 26 27 28 26 24 24 24 26 27 38 51 48 39 43 45 35 26 22 21 21 20 20 20 23
13 11 10 12 10 9 7 7 8 7 7 9 11 12 13 13 13 13 15 20 21 16 12 11 11 11 11 11 11 13 14 14 17 17 17 17 14 14 17 23 40 56 49 27 22 23 16 12 9 15 34 31 16 16 19 16 17 16 15 17 18 19 24 28 26 24 24 25 23 23 23 23 23 24 24 25 24 23 22 22 24 26 32 47 51 40 36 41 38 30 26 24 24 21 21 26 32
11 10 9 10 10 8 7 7 7 6 8 12 13 13 14 15 15 15 16 18 18 15 13 12 11 11 10 11 11 12 14 14 17 19 18 18 17 14 14 18 26 45 59 45 26 24 21 14 8 11 30 37 21 14 18 17 16 16 16 18 19 18 19 23 26 25 25 26 26 25 25 24 24 24 23 23 23 22 23 24 25 26 28 40 51 44 33 35 37 34 33 32 29 26 26 31 39
12 10 10 9 9 8 6 7 7 7 10 14 14 14 16 17 17 17 16 16 15 14 14 11 11 11 10 11 12 13 15 16 17 19 19 18 18 17 13 15 22 34 55 60 41 27 25 19 10 8 23 39 30 17 15 16 16 16 17 17 18 18 18 19 21 22 23 26 28 29 28 27 25 24 23 23 22 22 23 23 23 24 25 30 43 44 33 33 39 41 45 46 42 37 34 38 46
14 14 12 12 11 9 8 9 8 8 12 16 16 15 16 18 18 17 16 15 14 13 13 11 11 11 10 11 12 13 16 17 18 18 19 19 18 18 15 13 20 29 43 59 56 37 28 24 15 7 15 33 37 25 16 15 15 16 17 18 18 18 18 18 19 19 22 24 28 31 30 27 25 24 24 23 22 21 21 22 21 21 21 23 30 35 31 33 40 42 45 52 52 47 43 46 54
18 18 17 16 15 13 12 12 11 11 16 19 17 14 14 17 18 17 15 14 13 12 12 12 11 11 11 11 12 14 17 19 20 19 18 20 19 18 18 13 17 27 33 47 61 51 34 26 19 9 11 27 38 34 24 16 14 15 17 18 17 17 17 18 18 19 21 22 26 29 28 25 24 24 24 23 22 22 21 21 20 19 19 19 21 25 28 33 38 36 34 41 49 50 48 52 57
19 18 17 16 16 16 14 13 12 12 16 17 14 11 13 17 18 17 15 13 12 12 12 12 13 13 12 12 12 14 18 20 21 21 18 20 21 19 19 15 14 22 28 36 55 61 43 28 23 13 9 20 33 37 32 22 15 15 16 17 17 17 17 18 18 19 20 21 23 25 26 24 23 23 24 24 22 22 21 20 19 19 18 18 20 22 25 30 37 35 29 30 39 46 50 54 55
20 18 18 18 19 18 17 15 14 13 15 14 11 11 13 17 19 17 15 13 13 13 13 13 14 14 13 13 13 14 18 20 21 22 20 19 22 20 18 17 15 17 25 32 48 66 57 35 26 19 10 14 27 36 38 31 20 15 15 17 17 17 16 17 19 20 20 21 22 23 24 23 23 23 23 23 23 21 21 20 19 19 18 19 20 21 22 28 33 33 29 27 32 40 48 54 54
21 20 21 22 21 20 18 16 14 13 13 13 11 11 14 17 20 19 15 14 14 13 14 15 15 16 15 14 14 15 18 20 19 21 21 20 20 20 18 17 16 15 23 34 46 69 75 52 31 25 16 11 18 28 37 37 27 19 16 16 17 16 16 17 19 21 21 21 21 22 22 22 22 22 22 22 22 21 19 19 18 18 19 19 19 20 21 24 27 27 26 27 30 38 47 53 55
22 23 23 22 20 19 18 17 16 14 14 14 13 12 14 18 21 20 16 14 14 14 14 15 15 17 18 16 15 15 17 19 19 19 22 21 19 19 18 16 16 15 19 32 44 64 83 71 41 28 22 14 12 18 28 37 34 25 18 16 16 15 16 18 19 21 21 20 21 22 22 23 22 21 22 21 21 20 19 19 18 18 19 19 20 20 19 19 20 21 22 26 32 40 48 54 56
24 25 23 20 19 19 19 18 18 17 16 16 16 13 14 20 23 20 17 15 14 14 14 14 16 17 18 16 15 15 17 18 19 19 20 21 18 18 18 16 16 16 16 30 45 55 76 84 60 34 24 19 15 16 23 32 37 33 23 16 16 15 15 18 19 19 20 21 22 22 22 23 23 23 23 22 20 20 19 19 19 19 19 20 21 22 21 20 20 22 27 30 36 44 50 55 56
28 26 24 22 20 18 17 16 16 15 15 16 15 13 15 22 24 19 16 15 14 14 14 14 16 18 19 18 16 16 18 17 17 18 18 19 17 16 17 16 16 17 17 29 48 54 67 91 87 55 32 22 18 18 20 25 33 36 29 19 16 15 15 16 18 18 20 22 21 22 22 22 24 24 22 21 20 19 20 20 20 20 20 22 23 24 25 24 24 29 36 39 41 46 50 54 55
34 31 30 28 26 23 21 19 17 16 15 16 15 14 18 22 22 18 16 16 15 14 16 16 17 20 22 21 19 17 17 17 16 17 17 18 17 16 16 15 15 18 18 23 44 55 59 83 102 83 51 29 20 19 18 17 23 32 33 25 18 16 16 16 18 19 20 21 21 21 22 22 22 22 21 21 20 20 20 20 20 21 21 22 23 24 24 24 26 32 39 43 45 48 52 54 52
Wind_Speed
11 9 8 7 6 6 5 4 3 3 2 3 5 6 6 4 3 5 6 8 9 9 10 11 13 15 16 17 17 16 18 22 26 30 31 31 31 30 30 31 32 32 32 33 32 30 28 29 28 26 28 30 31 28 21 17 15 12 11 12 15 18 20 19 17 15 15 15 16 17 17 18 19 20 21 20 19 18 19 20 20 19 18 16 14 12 11 9 7 5 4 5 8 9 10 10 10
11 10 9 8 7 7 7 6 4 4 3 3 5 4 3 4 5 7 9 11 11 10 11 11 14 16 17 18 19 20 22 25 28 32 32 32 32 31 32 32 33 33 31 32 30 28 28 29 28 26 28 30 30 25 18 15 13 11 11 13 17 19 19 17 15 15 16 16 17 18 19 19 20 21 22 21 19 18 18 18 18 18 18 16 15 13 11 10 9 8 7 7 8 10 11 12 11
11 10 9 9 8 9 9 8 6 5 5 5 5 4 3 4 6 5 8 10 10 11 11 13 16 18 20 23 25 25 26 27 29 33 33 33 33 33 33 33 34 32 31 31 30 27 28 30 27 26 27 29 28 21 16 14 11 10 11 15 18 19 17 15 15 16 16 17 18 19 20 20 20 20 21 22 20 18 18 18 18 18 17 17 15 14 13 12 11 10 9 9 9 10 11 12 12
11 11 10 10 10 10 10 9 7 6 5 6 7 7 6 6 9 6 4 10 12 11 12 14 18 21 24 26 27 27 28 27 30 34 33 34 34 34 34 34 34 32 31 32 30 27 28 29 26 25 26 29 25 18 14 11 10 10 12 16 18 17 15 14 15 16 16 17 19 20 20 19 19 19 21 22 20 18 18 19 18 17 17 16 15 15 15 15 14 13 12 11 9 8 9 10 11
12 12 12 11 11 11 12 11 10 9 8 7 8 9 7 5 7 7 7 11 13 14 15 17 20 23 24 26 26 27 28 29 32 34 35 35 35 34 34 35 34 32 32 32 29 27 27 27 25 23 25 27 22 15 12 9 9 10 13 16 17 16 14 14 15 15 16 17 18 20 20 19 18 20 21 22 20 19 18 18 18 17 16 16 15 16 16 17 17 17 17 15 12 6 3 6 7
14 14 13 12 13 14 13 12 12 12 11 9 8 9 8 8 8 8 9 11 14 16 18 19 21 22 24 25 26 28 29 30 32 35 36 37 36 35 36 37 35 33 32 31 28 26 27 25 23 22 25 26 19 14 10 8 8 10 13 16 16 14 14 14 14 15 16 17 18 20 20 19 19 20 22 22 20 19 18 18 17 16 16 16 16 16 17 18 19 20 21 20 19 15 8 5 6
18 17 16 14 15 15 14 12 13 13 12 11 11 10 10 11 12 11 11 11 12 15 17 20 22 24 26 27 28 29 29 30 33 35 37 38 38 37 39 38 35 33 31 30 27 26 26 24 21 20 23 23 16 12 8 7 8 10 13 15 14 14 14 13 14 15 16 17 18 19 20 20 20 21 22 22 20 19 18 17 17 16 17 16 16 16 16 18 19 21 22 24 25 24 20 14 10
20 20 19 17 17 17 15 14 14 14 14 14 13 13 13 13 14 14 14 13 14 16 18 20 22 23 26 27 28 29 30 32 34 36 37 38 39 40 40 38 34 32 30 30 27 25 25 22 19 19 22 21 14 10 7 7 8 10 13 14 13 13 13 13 13 15 17 18 19 20 21 21 21 21 21 21 20 19 18 17 17 17 18 17 17 17 17 17 19 20 21 23 26 27 26 21 16
23 23 22 20 20 19 18 17 17 16 16 15 14 14 15 15 13 13 13 14 17 19 21 23 22 22 25 26 27 29 31 33 35 36 38 39 40 41 41 37 33 30 30 29 26 25 24 20 17 17 21 18 12 9 7 6 8 10 12 13 13 13 13 12 13 15 16 18 20 21 21 21 21 21 20 20 20 19 18 18 19 19 19 19 19 19 18 17 18 19 20 21 23 25 25 22 19
25 25 24 23 21 21 20 20 20 18 17 16 15 15 16 16 14 13 13 14 17 21 22 23 24 25 27 27 27 29 32 35 36 37 39 41 42 41 39 36 32 30 30 28 26 25 22 18 15 16 20 16 10 8 6 6 8 10 11 12 13 12 12 11 12 14 16 18 20 21 21 21 21 20 20 19 19 19 19 20 20 20 20 21 21 21 20 19 17 18 19 20 21 22 22 20 18
28 27 26 25 23 23 22 22 22 21 19 19 18 17 16 17 17 16 15 15 18 20 20 22 24 27 27 26 27 30 34 37 38 39 42 43 42 40 37 34 31 30 28 26 25 23 19 16 13 16 18 14 9 7 6 6 7 9 10 12 13 12 11 10 11 13 15 18 19 21 21 21 20 20 19 19 19 19 19 20 21 21 21 21 22 22 21 21 19 18 19 21 21 21 20 19 19
30 30 29 27 26 26 24 24 24 23 22 21 21 20 18 19 19 17 17 18 20 20 20 22 24 28 28 26 28 33 37 40 40 42 43 42 40 37 35 32 30 29 27 25 24 21 17 13 12 15 16 12 7 6 5 6 7 9 10 12 12 11 10 9 10 12 15 18 19 20 21 21 21 20 19 18 18 18 19 19 20 21 22 22 22 22 21 21 21 19 19 20 21 20 20 19 19
32 31 31 29 29 28 27 26 27 26 24 23 23 22 21 20 19 17 18 21 24 25 25 25 26 30 31 29 32 37 40 41 42 43 42 40 37 35 33 31 29 27 25 24 22 19 15 11 11 15 14 9 6 5 5 5 7 9 9 11 11 10 10 9 10 11 15 17 18 20 20 20 20 20 19 18 18 18 18 19 20 21 22 22 22 22 22 21 21 21 20 20 20 21 21 20 19
33 33 32 32 31 30 29 29 29 28 26 25 24 23 22 22 21 20 21 24 27 28 29 30 31 33 34 33 36 39 41 42 43 43 41 38 35 34 32 30 27 26 24 23 21 18 13 9 11 14 12 7 5 5 5 4 7 9 9 11 10 10 10 10 11 12 15 17 18 18 18 19 20 19 18 18 18 19 19 19 20 21 22 22 22 22 22 21 21 21 21 21 21 21 21 20 20
36 35 34 33 33 33 32 31 31 30 29 28 27 25 23 23 24 24 24 24 26 27 30 32 34 35 36 35 37 40 41 43 43 41 39 35 33 32 30 28 26 25 23 22 20 16 10 8 11 13 10 6 4 5 5 5 8 8 9 10 10 10 11 11 12 13 15 17 17 17 18 19 19 18 18 18 18 19 19 19 20 21 22 22 22 23 23 22 22 21 21 21 22 22 22 21 20
38 37 36 35 35 35 34 34 33 33 32 31 30 27 25 25 26 25 24 23 23 24 26 27 28 30 32 34 38 41 42 42 40 38 34 31 30 29 26 25 24 23 21 20 18 13 8 7 10 11 8 5 4 5 5 5 8 8 9 10 10 11 11 12 12 13 16 17 17 17 18 19 19 19 19 19 19 19 19 20 20 21 22 23 23 23 24 23 23 23 22 22 22 22 23 22 21
41 39 38 38 37 36 36 36 36 35 34 34 32 30 28 28 27 26 26 25 24 24 23 21 21 24 30 37 40 42 42 40 37 33 29 27 26 24 23 22 22 21 19 18 17 11 6 7 10 9 6 4 4 6 6 6 8 8 9 9 11 12 12 12 12 13 17 17 17 18 19 19 20 20 20 20 20 20 20 21 22 23 24 24 24 24 25 25 25 24 23 23 23 22 23 23 23
42 41 41 41 41 39 38 38 39 38 37 36 35 33 31 30 29 28 28 26 24 26 27 26 26 30 37 41 42 42 40 36 32 28 24 23 22 21 22 22 21 19 18 17 16 9 4 6 9 7 5 3 5 6 6 6 7 8 10 10 11 12 12 12 12 15 17 17 18 19 19 20 20 20 21 21 21 22 22 22 24 25 26 26 26 26 27 27 27 27 27 26 26 25 25 25 25
43 43 43 43 43 42 41 40 40 40 39 38 37 36 34 33 31 30 30 27 26 28 31 31 32 37 42 42 41 40 36 31 27 23 22 21 21 22 22 22 20 19 17 17 14 7 3 6 7 5 3 4 6 7 6 6 7 9 10 10 12 12 12 13 14 16 16 17 18 19 19 19 20 20 21 22 23 24 25 25 27 27 28 28 29 30 31 30 31 33 33 34 34 33 32 32 30
45 45 45 45 45 44 43 41 41 42 41 40 39 38 37 36 34 32 31 30 29 30 33 34 37 41 42 41 39 36 31 27 23 21 20 20 21 23 23 22 20 18 17 15 11 4 2 5 6 4 3 4 7 7 6 6 8 10 11 11 12 12 13 13 15 15 16 18 18 18 19 20 20 21 21 22 23 26 27 29 30 30 30 31 33 36 38 38 40 41 42 44 45 44 44 43 42
46 46 45 45 45 45 44 42 41 42 42 42 41 40 39 38 36 35 34 32 32 33 34 36 39 41 39 38 35 32 28 24 22 21 20 21 22 23 23 21 19 17 15 12 6 0 2 5 4 3 3 6 8 7 5 7 9 11 11 11 12 12 13 14 15 15 16 18 18 19 21 22 22 23 23 23 25 27 29 31 31 32 33 35 37 39 42 44 46 48 49 50 51 50 50 50 50
45 44 44 43 43 43 43 42 42 42 42 42 42 41 41 40 39 38 37 35 34 34 34 36 38 37 36 34 31 28 25 23 21 20 21 23 23 23 22 20 18 16 12 9 2 2 3 4 3 3 4 7 8 7 5 8 11 12 12 11 11 12 13 14 15 15 17 18 19 21 22 24 26 26 26 26 27 29 31 32 33 34 36 39 41 43 45 47 48 50 51 52 52 52 52 52 52
41 41 41 41 41 42 42 42 42 42 42 42 42 42 41 41 40 39 38 36 34 33 33 34 34 33 32 30 28 25 22 20 20 21 23 23 22 21 21 19 17 14 10 4 2 3 3 3 3 3 6 8 9 6 6 9 11 12 12 11 12 13 14 15 15 16 18 19 20 21 24 27 28 29 29 29 30 31 33 34 35 38 40 42 44 46 47 48 50 50 51 51 51 51 51 51 51
37 37 38 38 39 39 40 40 41 41 41 41 41 41 41 41 40 39 37 35 33 32 31 30 30 29 28 27 25 22 19 19 20 22 22 21 20 20 20 18 16 11 6 2 4 3 3 3 3 4 8 9 8 6 7 10 12 12 12 11 12 14 15 16 17 18 19 20 21 22 24 27 29 30 30 31 31 33 34 36 38 40 42 44 45 46 47 47 48 48 48 47 46 45 45 45 45
31 33 34 34 35 35 36 37 38 39 39 39 39 39 40 39 38 36 34 33 31 29 27 26 25 25 25 24 22 20 19 19 21 23 21 20 19 21 20 18 14 7 2 5 5 3 3 3 4 6 10 10 8 7 9 11 12 13 12 12 14 16 17 18 19 20 21 22 23 24 24 25 29 30 30 31 32 34 36 37 39 41 42 43 43 43 43 43 43 42 42 41 39 38 37 38 37
23 25 27 29 30 31 32 32 34 35 36 36 37 37 37 36 34 33 31 29 26 24 22 22 22 22 22 21 19 18 19 20 21 21 20 20 21 21 20 16 10 2 6 6 5 3 4 4 5 8 11 10 8 8 10 12 13 13 13 13 16 18 19 21 21 21 23 24 25 26 26 28 30 30 30 31 32 34 36 37 38 40 41 41 40 39 38 38 37 36 35 34 33 32 32 32 32
18 19 20 22 23 24 26 27 29 31 32 33 34 34 33 32 30 29 27 24 21 20 20 21 20 20 20 19 17 17 18 19 20 20 20 21 21 20 17 13 4 6 8 7 5 4 5 4 7 10 11 10 8 9 11 12 14 14 14 15 18 20 21 22 22 22 23 25 26 27 29 31 31 31 31 31 31 32 34 35 37 38 38 37 36 34 33 33 31 30 29 28 29 28 28 29 30
18 17 18 19 19 19 20 21 23 25 27 29 29 29 28 28 26 25 23 21 19 19 19 20 20 19 19 18 16 16 17 18 19 19 20 21 20 18 14 8 2 9 9 7 5 5 6 5 8 12 11 9 8 10 11 13 15 15 15 17 19 21 22 23 22 22 23 25 26 27 29 31 31 30 31 30 30 30 31 33 35 35 35 34 32 30 29 28 26 26 25 25 25 25 25 26 27
20 17 18 19 18 18 17 17 18 20 23 24 24 24 24 24 23 20 20 19 19 19 19 19 19 19 18 17 15 16 17 18 18 18 19 20 18 16 12 4 6 11 10 7 5 6 7 6 10 12 11 9 9 11 12 14 16 16 17 18 20 22 24 24 23 22 23 24 25 26 28 29 30 30 30 30 29 29 29 30 31 31 31 30 28 27 26 24 23 23 22 22 22 22 22 23 23
21 20 20 20 20 19 17 16 16 17 19 20 21 20 20 21 19 17 18 19 19 19 19 19 20 19 17 15 15 15 16 17 17 17 18 18 16 14 10 3 9 11 9 7 6 7 7 7 11 12 10 9 10 11 13 15 17 17 18 19 21 24 25 24 23 23 23 24 25 25 27 28 29 29 29 29 28 28 27 28 28 29 28 27 25 24 23 22 21 20 20 20 19 19 19 20 20
25 24 22 22 23 20 17 17 15 15 17 18 18 18 18 18 17 17 18 19 19 20 20 20 20 18 15 13 14 15 15 15 15 16 16 15 14 11 7 4 9 11 9 7 6 7 7 9 13 12 10 9 10 12 13 16 17 18 19 20 22 25 25 24 23 23 23 24 25 25 26 27 28 28 28 27 27 26 25 25 25 25 24 22 21 20 20 19 19 18 17 17 16 16 16 17 18
28 27 27 26 25 20 18 18 17 15 15 17 18 18 19 19 18 18 19 20 20 20 21 20 18 17 15 13 13 14 14 14 13 14 14 13 11 8 6 6 9 10 8 7 7 7 7 10 14 13 10 9 11 12 14 17 18 18 20 20 22 25 25 24 23 22 23 24 24 25 25 25 26 26 26 26 25 25 23 22 21 20 19 18 18 19 19 19 19 18 17 16 15 14 14 15 15
32 32 33 30 26 22 21 21 18 16 17 18 19 20 20 20 20 20 20 21 20 21 21 19 17 17 15 13 13 13 13 13 12 13 12 10 8 6 5 6 8 8 7 7 7 6 7 11 14 13 10 9 11 13 15 18 18 19 20 20 22 24 25 24 22 22 23 23 24 24 24 24 24 24 24 23 22 22 20 19 18 17 16 18 19 20 21 21 22 22 22 21 19 17 15 14 14
38 39 38 34 29 26 24 23 21 18 20 20 19 20 21 21 23 23 22 22 21 20 20 18 17 16 15 13 12 12 13 13 12 11 10 8 5 3 4 5 7 7 7 7 6 5 7 12 14 13 11 10 11 13 15 18 19 19 20 21 22 24 24 23 21 21 23 23 23 23 23 22 22 22 22 22 21 20 19 17 17 17 17 18 19 20 21 21 22 23 24 25 25 24 22 20 18
43 42 41 36 31 29 27 27 23 21 22 21 20 22 22 23 24 23 22 22 21 20 19 18 17 17 15 12 12 12 12 13 12 11 9 6 3 1 2 4 6 7 7 6 5 5 7 12 14 13 13 12 12 13 15 19 19 19 20 21 22 23 22 21 20 21 23 23 22 22 21 21 21 21 21 21 21 19 18 18 18 17 17 17 17 18 20 20 21 22 23 24 25 27 27 26 25
44 43 41 37 34 31 30 29 25 24 24 23 22 23 23 23 24 23 22 21 20 20 18 18 18 17 14 12 13 12 11 13 12 10 9 5 2 1 3 4 6 8 7 5 5 5 8 12 13 13 14 13 13 13 15 19 20 20 20 21 22 22 21 20 20 21 23 22 21 20 19 19 19 19 20 20 19 18 18 17 16 16 15 16 16 17 18 19 20 21 21 21 23 24 25 27 27
45 44 43 41 38 36 34 31 28 27 27 26 25 23 23 25 25 23 22 20 20 19 17 18 19 16 14 13 13 12 11 12 11 10 9 6 3 2 4 6 7 8 7 5 5 6 9 12 13 13 14 14 14 14 16 18 21 21 21 21 22 22 20 20 20 21 22 21 19 18 17 18 17 18 18 17 17 16 16 15 14 14 13 14 15 15 16 17 18 19 20 20 21 22 23 24 26
48 47 46 44 42 41 39 35 32 31 30 30 28 24 24 28 26 23 22 21 19 18 18 19 19 16 14 14 13 12 11 11 11 10 9 6 4 2 3 6 9 9 8 6 5 7 11 13 14 14 15 16 15 15 16 19 21 21 21 22 22 21 19 18 19 20 20 19 18 17 17 17 16 16 15 15 15 14 14 12 11 11 11 12 13 13 15 16 17 18 19 19 20 21 22 22 23
51 50 49 47 46 46 43 39 37 34 34 35 32 28 28 29 28 25 24 22 20 19 19 19 19 17 15 14 14 13 12 11 11 11 9 7 5 4 4 6 9 10 9 7 5 7 12 14 15 14 16 16 15 15 16 18 21 21 21 21 21 20 17 16 17 18 18 18 16 16 16 17 16 15 14 13 13 12 12 10 10 10 10 11 12 13 14 15 16 17 18 19 19 20 21 22 22
53 52 51 50 50 49 47 45 41 38 39 40 36 32 30 29 27 27 26 24 22 21 20 20 19 17 16 15 14 13 12 11 11 11 9 8 6 6 5 6 9 11 10 8 5 6 13 16 16 15 15 16 16 15 16 18 20 22 21 21 20 19 17 16 17 18 18 16 16 16 16 16 15 14 13 12 11 10 10 9 8 8 9 10 11 12 13 14 15 16 17 18 19 19 20 21 21
55 54 54 55 54 53 53 50 44 42 43 42 38 33 29 27 27 29 30 26 23 23 22 21 19 18 17 16 15 14 13 12 11 11 10 9 7 7 7 6 9 11 11 10 8 7 12 17 17 16 15 17 17 17 17 18 20 21 21 21 20 18 17 16 17 17 17 16 16 16 15 14 14 14 13 11 10 9 9 8 8 8 9 9 10 11 12 12 13 15 16 17 18 18 19 20 21
56 56 58 59 58 57 57 51 45 44 44 43 40 36 32 30 30 32 31 27 25 24 23 23 20 19 19 18 16 15 14 13 12 12 11 10 9 8 9 8 9 11 12 12 10 9 13 19 20 18 17 18 18 18 18 19 20 21 21 20 20 19 18 17 17 17 17 17 17 15 14 14 14 13 13 11 10 9 8 7 7 7 8 8 9 10 10 11 12 13 14 16 16 17 18 19 19
57 59 62 62 60 60 58 52 48 46 46 46 43 39 36 33 31 32 32 29 27 26 25 24 21 21 21 20 18 17 16 14 13 13 12 11 10 10 10 10 9 11 13 13 12 11 14 21 22 20 18 18 19 19 19 20 21 22 22 22 21 20 18 17 17 18 18 18 17 15 14 14 13 13 12 11 10 9 8 7 6 6 6 7 7 8 9 10 11 11 13 14 15 16 17 17 17
60 64 64 62 61 61 60 55 50 49 51 49 43 41 40 36 32 33 33 31 29 28 28 27 24 24 24 22 21 19 18 16 15 14 13 13 12 12 12 12 11 12 13 14 13 12 14 19 22 21 20 19 19 20 20 21 22 23 23 23 21 19 17 17 18 19 19 18 17 16 15 15 14 13 12 11 10 9 7 6 6 6 5 5 5 7 8 8 9 10 11 12 13 14 15 16 16
66 68 65 63 64 64 62 57 53 54 54 49 44 43 42 38 35 34 33 31 31 31 31 30 28 27 25 23 22 21 19 18 17 15 14 14 14 14 14 14 13 12 13 15 15 13 13 18 22 22 21 20 21 20 21 22 23 24 24 23 21 19 18 17 18 19 19 19 18 17 16 15 15 14 13 11 10 9 8 7 6 5 5 3 3 5 6 7 7 8 10 11 12 13 14 14 15
71 70 66 66 66 66 62 57 56 56 52 48 46 45 42 40 38 36 32 31 34 36 35 33 32 29 26 24 24 23 22 20 19 17 15 15 15 15 15 15 14 14 15 16 16 15 15 18 23 24 23 22 22 22 22 23 23 23 23 22 21 20 19 18 17 18 19 18 18 17 16 15 14 14 13 12 10 9 8 7 6 6 5 3 1 4 5 6 6 8 9 10 11 11 12 13 15
74 72 68 68 68 67 62 58 58 55 48 46 48 46 43 42 40 37 34 35 38 39 37 35 33 31 28 26 25 25 24 22 20 18 17 16 16 17 17 17 16 16 17 17 18 18 17 19 23 25 24 24 24 24 23 23 23 22 22 22 21 21 20 19 18 17 18 18 17 17 16 15 14 13 13 13 11 10 9 8 7 7 6 4 1 3 5 5 6 7 8 9 10 10 11 12 14
75 72 70 69 70 68 63 59 58 51 44 46 48 46 43 41 40 40 40 40 40 40 39 37 35 33 30 27 26 25 25 24 21 20 19 18 17 19 20 19 18 17 18 19 20 20 19 19 22 25 26 26 26 26 25 24 23 22 22 22 22 22 21 20 19 18 18 18 18 17 16 15 14 14 14 13 13 11 10 9 8 8 7 6 4 3 4 4 5 6 7 8 9 9 10 12 13
74 72 71 70 70 68 62 58 55 48 44 47 49 46 42 41 42 43 43 43 42 42 42 39 37 34 31 28 27 26 26 25 23 22 22 20 19 20 22 21 20 19 20 21 22 22 21 19 20 24 27 28 28 27 26 25 24 23 22 22 22 22 21 20 19 18 18 19 19 18 17 16 16 16 15 14 14 13 12 11 10 10 9 9 7 5 4 4 4 5 6 7 8 9 10 11 12
73 72 70 69 68 65 60 56 54 49 47 50 51 48 44 42 44 45 45 46 45 43 43 41 38 35 32 30 28 27 27 25 25 24 23 22 21 21 23 23 22 20 21 23 24 24 23 21 21 23 26 28 28 28 27 26 25 23 23 23 23 22 21 20 19 18 18 19 19 19 18 18 18 17 16 15 15 14 13 12 12 11 10 10 10 8 6 4 4 5 6 6 7 8 9 10 12
75 73 71 69 67 63 59 58 56 53 52 55 54 49 44 45 48 49 49 48 45 44 43 41 39 37 34 32 29 27 27 26 26 26 25 24 23 23 23 24 24 22 22 24 25 26 27 25 23 23 26 29 30 29 28 27 26 25 24 24 24 23 22 20 19 19 19 19 19 19 19 20 19 18 17 16 16 15 14 14 13 13 11 10 10 9 7 5 5 6 6 7 7 8 9 10 12
75 75 73 67 64 64 64 64 62 59 59 59 54 48 46 49 53 52 50 47 45 44 43 40 39 38 36 34 30 29 28 28 28 28 27 26 25 24 24 25 25 24 24 25 26 28 30 29 26 25 27 30 31 30 29 28 27 26 26 26 25 24 23 22 21 21 20 20 20 20 21 21 20 19 18 17 16 16 15 15 14 13 11 10 10 9 9 7 7 8 8 8 8 8 9 10 12
76 76 69 63 66 70 69 66 64 62 61 58 53 50 49 51 54 53 49 47 45 44 42 40 39 39 38 36 33 31 30 30 29 29 29 27 27 26 25 26 27 27 26 27 28 30 30 31 29 26 27 30 32 32 31 30 29 28 27 27 27 26 24 23 22 22 21 21 21 21 22 22 21 20 18 18 17 17 17 16 14 13 12 11 10 10 10 9 10 10 11 10 10 9 10 11 12
80 75 68 69 75 75 69 66 65 62 59 57 55 52 50 51 53 53 49 47 46 44 42 40 40 40 40 39 37 34 32 32 31 31 30 29 28 27 26 28 29 29 28 29 30 31 31 31 31 28 27 29 32 33 33 33 32 30 28 28 28 28 25 24 24 24 24 23 23 22 22 22 21 20 19 19 19 18 18 16 15 13 12 12 11 11 11 12 12 13 13 12 12 11 10 11 12
81 76 74 78 79 73 68 66 63 60 58 58 57 54 51 52 54 54 51 49 48 46 44 42 41 41 42 42 40 37 35 33 32 32 31 31 30 29 29 29 30 31 31 31 31 32 33 33 33 31 29 28 30 32 33 33 33 32 30 30 30 29 27 26 26 26 26 25 24 23 23 22 21 21 20 20 19 19 18 16 15 14 13 12 12 13 13 14 15 15 15 14 14 12 11 11 13
82 80 81 82 78 73 71 68 65 62 61 60 59 57 53 53 57 58 54 52 51 48 46 44 43 43 45 45 43 40 37 35 34 34 34 34 33 32 31 30 32 33 33 32 32 33 34 34 34 34 31 29 29 32 34 35 34 33 32 32 31 30 28 28 28 28 27 26 25 25 24 23 22 22 21 21 20 19 17 16 16 15 14 13 13 13 14 15 16 16 16 15 15 14 13 13 14
83 82 81 79 76 74 73 71 69 66 63 62 62 58 54 56 61 60 57 54 53 50 47 46 44 44 45 45 44 42 39 37 36 36 37 37 35 34 32 32 34 35 35 34 33 33 34 35 34 34 33 31 31 34 37 37 36 35 34 34 33 31 29 29 29 29 28 28 27 27 25 24 24 23 22 22 21 19 18 17 17 16 15 14 14 14 14 15 15 15 15 15 15 14 14 14 15
85 83 81 79 77 76 76 72 68 66 63 62 62 58 57 61 64 62 58 56 53 50 48 46 44 44 45 46 45 44 42 40 39 39 39 38 36 35 34 34 36 37 37 37 35 34 35 35 35 34 35 34 34 36 38 37 36 35 35 35 34 32 30 30 30 30 30 30 29 28 26 26 25 24 24 23 22 20 19 18 18 17 16 15 15 15 15 15 15 15 15 16 16 15 15 16 17
Wind_Direction
221 219 219 222 225 228 240 228 204 234 205 193 205 205 228 244 287 314 306 307 299 286 294 301 300 295 292 293 299 311 326 334 333 335 337 339 340 341 342 343 345 345 347 350 349 349 349 348 348 352 352 350 347 349 356 1 9 19 23 24 19 13 6 3 9 22 36 44 45 40 35 32 32 33 35 36 40 44 45 47 47 45 43 40 37 33 28 21 11 350 303 265 247 238 231 226 223
225 221 218 222 226 232 244 239 229 247 249 214 197 199 240 293 312 314 304 297 292 291 303 306 293 284 283 292 306 318 328 332 331 333 334 336 337 338 340 341 342 344 348 350 351 351 351 349 349 352 352 349 348 352 0 5 16 25 27 24 18 11 6 10 22 34 45 47 43 39 34 31 31 32 33 33 36 42 43 43 43 41 37 34 31 25 18 9 359 344 323 297 273 256 243 236 231
229 227 219 219 225 233 244 249 247 256 257 227 213 233 254 259 254 281 308 293 282 286 296 297 288 286 289 296 305 311 318 323 327 330 330 333 334 335 338 340 342 345 348 350 351 352 351 350 350 353 352 350 349 355 4 10 24 31 29 25 18 12 14 24 35 46 50 47 42 38 33 32 32 31 32 32 35 40 42 41 40 38 33 30 28 22 16 10 1 348 333 315 293 271 254 242 236
226 232 229 222 226 231 238 245 254 257 252 238 236 245 245 237 228 220 284 289 285 284 286 282 281 287 294 300 301 301 308 314 322 327 327 330 332 334 336 338 341 343 346 347 349 349 348 349 349 352 352 350 351 360 8 17 33 36 31 25 18 18 27 41 50 55 53 47 42 37 34 34 34 33 32 34 38 42 42 40 38 35 31 29 28 25 22 19 12 6 1 349 327 288 259 242 232
228 234 238 235 235 237 241 250 261 259 257 257 249 244 246 249 248 230 236 268 277 279 281 276 276 283 292 296 295 298 306 311 319 324 326 328 330 331 332 335 337 339 340 343 345 345 347 348 348 351 352 350 353 5 14 25 40 40 33 26 22 29 46 56 62 61 53 47 42 37 36 37 37 36 35 38 43 46 44 42 39 35 33 32 31 29 28 28 25 24 26 23 20 8 266 223 210
238 237 240 243 243 243 246 254 261 262 264 263 247 240 245 250 262 253 243 260 274 278 279 276 277 283 287 289 290 298 307 311 317 322 325 326 328 329 329 331 333 335 336 340 342 343 345 347 347 351 352 350 356 10 20 34 46 43 34 28 30 46 62 67 68 61 52 46 40 37 38 41 42 40 40 43 47 49 48 45 42 40 38 36 36 34 35 39 36 38 43 44 46 54 72 121 153
244 245 244 245 246 247 250 254 260 264 265 260 247 243 249 253 256 257 257 261 270 276 277 278 283 285 284 285 289 298 307 312 316 320 322 324 325 325 325 328 331 333 336 339 340 341 345 347 347 352 353 351 358 14 25 41 51 45 36 33 41 62 72 74 70 58 51 45 39 36 39 44 44 43 43 46 50 53 52 48 46 45 45 44 42 41 42 47 47 49 54 57 59 63 71 85 99
243 247 248 249 249 252 255 255 259 264 265 259 249 249 256 258 256 260 264 259 259 267 270 278 287 288 286 286 290 298 307 313 316 318 319 321 322 322 323 325 328 332 336 338 339 341 344 346 347 353 353 351 1 17 31 47 54 47 38 40 53 72 78 79 69 57 51 45 39 38 41 43 44 44 44 47 51 56 58 55 53 51 50 50 48 46 47 53 55 57 60 63 67 69 71 75 78
241 245 248 250 251 255 258 257 256 258 261 259 254 256 261 262 263 266 268 262 260 263 268 275 282 288 288 289 294 302 309 314 316 317 318 320 320 319 321 323 326 330 333 337 337 340 343 345 347 354 354 352 4 21 36 53 57 48 41 48 61 77 82 81 68 57 51 44 40 39 39 40 42 44 46 49 53 58 62 61 59 57 54 52 50 49 50 54 58 60 63 65 69 72 74 75 75
241 244 247 249 252 255 257 258 257 257 258 260 259 259 262 261 260 260 262 267 269 272 277 282 285 288 288 290 298 305 310 313 315 316 317 318 318 318 319 321 324 327 330 334 336 338 342 344 348 355 354 353 9 25 44 62 59 48 44 53 66 78 85 80 66 56 48 40 37 37 38 38 40 43 46 50 54 59 61 61 61 60 58 55 53 52 52 53 58 62 64 67 69 71 74 75 73
241 244 247 249 251 254 256 257 260 260 259 260 260 261 264 258 253 254 258 266 273 278 283 289 292 291 289 291 298 304 309 313 314 315 316 317 317 317 318 321 324 326 329 332 334 337 341 344 351 357 354 355 13 30 55 68 61 48 47 58 68 78 84 79 65 54 43 35 32 34 36 37 40 42 46 51 56 60 61 61 61 61 59 57 55 53 53 53 58 63 66 67 68 68 68 69 69
241 244 247 249 251 253 255 258 260 261 260 261 261 263 267 260 254 257 258 260 268 275 282 288 290 289 290 293 300 305 310 313 314 314 315 316 317 317 318 321 324 328 330 332 334 337 341 346 355 359 354 358 18 38 64 75 60 47 50 61 69 76 81 77 64 50 36 29 29 32 35 39 41 42 48 54 59 63 63 60 60 61 59 58 57 56 55 54 57 62 66 66 64 65 67 68 68
242 244 246 247 250 252 254 257 258 260 261 262 262 263 265 259 256 260 260 260 267 275 280 285 285 285 285 291 302 307 311 312 312 313 314 315 316 316 319 321 325 329 333 334 335 338 341 349 1 360 355 1 26 48 75 80 56 47 53 63 70 75 74 71 58 44 31 25 28 32 35 41 43 45 52 58 63 65 65 62 61 61 60 60 59 58 58 57 57 58 62 63 63 64 68 70 71
243 245 246 247 248 250 252 254 257 260 261 261 262 263 262 256 256 266 269 267 269 274 278 279 280 281 283 291 302 308 310 311 311 311 313 314 314 315 318 321 324 329 334 335 336 338 343 356 3 359 355 6 35 58 83 78 53 50 57 65 70 72 68 62 50 38 29 24 28 33 38 45 46 49 55 61 65 67 68 66 64 63 62 61 61 61 61 60 58 57 59 61 62 64 67 69 72
243 245 246 247 248 249 250 253 255 258 260 261 261 261 261 258 259 269 272 269 273 279 281 278 275 275 279 290 302 308 311 311 311 311 312 313 314 316 319 322 323 328 333 335 336 338 345 2 5 358 357 11 45 69 89 74 53 55 63 68 71 68 63 56 45 36 27 24 31 37 44 50 49 50 55 61 66 68 68 67 66 66 65 63 63 62 62 62 61 59 60 61 62 64 66 66 70
243 245 246 248 248 248 249 251 253 255 258 260 261 261 261 260 262 267 266 269 275 280 282 279 276 273 279 294 305 310 311 311 311 311 313 314 316 319 322 324 325 329 334 336 336 339 350 8 5 358 358 19 59 80 94 75 54 61 71 72 72 68 62 54 45 33 24 26 38 46 52 55 53 53 56 61 66 68 68 68 68 68 67 66 65 64 64 63 62 61 61 61 61 62 63 64 67
242 244 246 248 248 249 249 250 251 253 256 258 261 261 261 260 262 264 265 271 272 270 278 281 281 285 295 307 311 310 310 310 311 312 314 315 317 322 326 328 330 333 336 337 336 339 356 11 3 359 4 34 75 89 101 76 55 68 77 76 74 69 63 56 46 32 26 35 49 56 60 60 57 58 59 64 68 69 69 70 70 69 69 68 68 68 66 64 62 62 62 62 62 62 62 63 63
241 243 245 247 248 249 250 250 250 251 253 256 259 260 261 262 263 263 266 274 270 264 275 282 286 297 305 311 310 309 309 309 310 313 315 314 317 323 327 331 332 334 336 335 334 336 2 12 4 3 13 54 88 99 104 71 60 78 81 79 76 71 66 60 48 34 34 48 60 65 65 62 61 62 63 67 71 72 71 71 71 71 71 72 72 72 70 68 66 64 62 61 61 62 62 63 62
243 244 245 247 248 249 250 250 250 251 253 254 257 260 262 263 264 265 266 272 269 265 273 278 286 298 305 308 308 307 308 308 310 312 312 312 316 322 326 329 332 334 335 332 330 331 15 14 5 11 29 81 99 110 107 67 69 84 85 83 79 76 71 64 49 39 47 60 66 69 67 64 64 66 66 70 72 72 72 72 72 73 75 76 77 77 77 75 73 71 67 66 67 67 66 67 67
244 245 247 249 250 251 250 249 248 250 253 254 256 258 261 263 264 265 267 269 267 267 273 279 288 297 302 304 305 306 307 307 307 308 309 312 317 321 323 327 331 335 335 330 325 327 43 17 9 22 52 101 108 118 104 70 81 88 86 86 83 81 75 64 51 48 59 66 69 71 70 70 70 70 70 71 73 74 75 75 76 77 79 81 82 82 83 83 82 81 78 76 75 74 73 72 72
243 244 246 249 251 251 250 249 247 248 251 254 255 257 259 262 263 265 267 269 269 271 277 282 288 294 299 301 302 304 305 305 307 308 310 314 317 319 320 324 329 335 335 326 320 349 55 23 22 39 86 113 117 123 99 79 90 89 87 87 86 84 77 65 56 61 70 71 74 76 77 77 76 76 76 77 78 77 78 79 80 82 83 85 86 86 88 88 87 86 85 82 80 77 76 75 75
242 243 243 245 247 249 249 248 247 247 249 251 253 255 257 259 261 264 266 269 272 276 279 283 288 293 296 298 300 303 305 306 310 311 313 315 317 317 318 322 327 333 332 320 303 126 55 37 45 65 109 121 123 125 96 90 94 91 88 87 88 87 78 69 66 74 78 78 80 82 83 82 81 82 82 83 83 82 82 83 85 87 88 89 89 90 90 90 89 88 86 84 82 81 79 78 77
241 242 242 243 244 245 247 248 248 248 249 250 251 253 255 256 259 262 265 269 274 278 280 283 288 291 293 295 299 303 305 309 313 314 315 316 317 318 319 322 325 331 327 303 171 120 58 59 74 94 122 125 129 125 98 98 98 93 90 88 91 89 81 76 79 85 83 83 84 87 88 85 84 85 84 85 86 86 87 88 90 91 92 92 93 92 92 91 89 88 85 83 81 80 80 78 77
241 242 242 243 244 246 247 249 250 250 250 251 252 253 254 255 258 261 265 269 273 277 280 283 286 288 290 292 296 300 304 311 314 315 317 318 320 321 322 322 323 328 313 219 150 108 70 80 91 114 127 129 134 123 103 105 101 95 92 91 94 91 87 88 93 93 88 89 89 91 92 87 85 85 85 87 89 90 91 93 94 95 95 95 94 93 91 90 88 86 82 79 76 75 75 74 72
242 242 242 242 243 245 247 248 250 251 251 252 252 253 254 256 259 262 265 269 272 274 277 279 282 285 288 291 295 299 305 310 313 315 318 319 320 321 321 319 318 319 232 166 138 103 89 96 109 127 131 135 138 120 110 110 103 99 95 94 97 96 97 101 102 97 93 92 90 91 93 90 87 86 86 88 91 94 96 97 97 97 97 95 93 90 88 87 85 82 79 75 71 68 67 67 64
243 243 242 242 242 242 244 246 248 250 250 251 251 252 254 256 258 261 264 267 269 268 269 273 279 283 286 290 296 301 305 308 311 316 321 323 322 321 320 316 313 249 169 149 128 111 106 105 119 132 136 140 139 120 116 113 107 102 97 98 102 103 106 109 107 101 97 94 91 92 93 93 90 86 86 89 93 96 98 99 98 98 97 93 89 86 84 84 81 78 75 72 69 65 62 60 57
244 244 244 243 242 241 242 242 244 246 248 248 249 251 253 255 256 256 259 261 260 259 263 270 277 281 284 289 295 302 306 308 312 318 325 328 325 324 323 318 304 162 157 138 125 119 112 113 128 136 140 144 136 121 121 117 110 104 100 104 107 109 112 114 111 105 100 96 94 94 95 95 92 89 88 90 94 97 99 99 99 98 95 91 86 82 80 78 77 73 69 68 67 64 60 57 53
241 243 247 246 244 243 241 241 241 243 245 247 249 250 250 251 249 249 251 253 251 253 260 268 274 278 282 288 297 303 307 309 313 319 326 331 330 330 330 326 159 156 149 131 127 122 114 118 135 141 145 144 132 124 126 119 111 105 106 111 112 113 117 118 115 109 102 98 97 97 97 96 94 92 91 92 96 98 98 99 99 97 94 90 83 79 75 71 69 66 62 61 62 62 60 56 53
238 239 244 248 247 245 243 242 242 242 243 245 246 246 245 244 242 242 245 247 248 253 259 266 272 277 282 291 300 306 307 309 314 320 328 334 336 338 340 350 147 154 146 129 126 122 114 124 140 145 148 142 131 128 129 121 112 110 113 116 115 117 121 122 118 110 104 101 100 100 100 99 97 95 94 95 97 98 98 100 99 96 92 88 81 77 74 69 65 62 57 56 58 59 59 57 54
232 232 236 243 246 245 243 243 243 242 242 243 243 240 239 240 237 234 240 245 250 257 261 267 272 275 283 294 302 305 306 308 314 323 333 338 340 346 355 57 143 152 143 128 125 122 117 132 144 147 148 142 132 133 132 122 115 115 119 120 119 121 124 124 119 111 105 105 104 104 103 102 100 98 97 98 98 97 99 101 99 95 90 86 80 75 71 67 63 59 55 55 56 56 55 55 53
230 231 230 233 240 242 242 244 241 239 239 241 240 235 234 236 234 231 238 246 253 259 263 267 271 275 283 293 298 301 303 306 316 329 337 340 345 357 18 96 141 149 142 128 125 121 122 140 148 149 150 142 135 139 136 125 119 122 124 123 124 126 127 125 120 113 108 108 108 107 105 103 101 100 100 100 100 99 101 102 99 94 89 82 76 70 66 63 59 55 51 50 52 52 52 51 50
234 234 231 228 232 235 238 241 238 235 235 234 233 231 230 231 233 234 239 247 253 258 263 267 271 276 283 290 294 297 299 304 317 332 339 342 350 11 49 109 136 144 139 128 124 119 126 147 152 151 151 142 139 144 139 128 125 128 129 126 128 131 131 129 122 116 114 111 110 109 107 104 104 103 102 101 101 102 102 102 97 90 84 77 72 69 68 65 62 58 53 48 46 45 44 44 43
239 237 234 229 226 225 229 235 234 232 232 230 229 230 232 231 233 236 241 248 251 257 262 266 270 275 282 287 289 294 296 302 318 334 339 343 354 26 81 117 133 138 134 127 123 119 134 153 156 152 150 144 144 149 143 133 131 135 134 131 131 133 135 133 125 120 119 115 112 110 109 107 107 106 105 104 103 102 101 98 92 85 80 76 74 73 72 70 67 63 60 57 54 48 43 38 34
238 237 235 230 225 221 223 229 228 228 232 232 232 235 236 234 235 237 241 247 250 255 260 266 269 273 278 283 285 290 297 303 317 333 338 341 354 40 104 124 134 138 133 125 119 118 145 161 162 154 150 147 147 152 147 137 136 140 139 137 136 135 137 136 129 126 125 121 115 113 111 110 110 109 107 106 103 101 98 95 91 86 82 79 76 74 72 69 66 63 61 60 59 57 53 49 45
237 238 238 234 230 225 223 227 226 225 231 233 233 237 239 238 240 241 242 245 250 254 260 265 267 270 275 278 281 288 297 302 314 330 337 337 348 53 138 143 143 142 134 124 118 123 153 170 168 157 151 149 150 155 152 142 140 143 142 141 141 139 138 137 133 131 130 126 120 118 116 114 113 111 108 105 102 100 98 94 90 86 82 79 75 72 70 67 64 61 59 58 57 57 55 55 54
238 241 243 241 237 232 228 228 226 226 230 231 230 235 241 242 242 243 244 245 250 254 259 263 265 268 272 274 278 285 293 300 309 326 334 330 323 200 174 169 157 150 140 130 123 127 155 176 176 162 152 151 153 159 157 147 144 147 145 144 144 141 140 137 135 135 134 131 126 123 122 119 117 114 110 107 104 102 98 92 88 83 79 76 72 69 67 64 62 60 58 57 56 55 54 54 54
237 240 243 243 240 237 232 230 228 228 230 230 227 229 239 243 241 242 246 246 249 254 258 262 264 267 271 273 278 281 287 295 303 318 329 323 302 238 191 183 173 162 152 142 134 136 155 179 183 166 155 154 157 163 163 153 148 151 150 148 147 144 141 140 139 138 138 137 133 129 129 127 122 118 114 111 108 103 98 93 88 83 78 74 70 66 64 61 60 60 58 55 54 54 53 53 53
235 237 239 241 241 239 235 231 229 229 232 232 227 225 234 242 241 240 244 245 247 252 255 258 262 265 268 273 278 280 282 290 295 308 322 318 295 260 207 191 183 174 165 155 152 148 156 180 188 174 162 161 163 167 167 160 154 156 156 154 155 152 149 147 145 143 142 142 139 137 138 136 129 124 120 116 113 109 104 98 91 85 79 73 69 65 62 60 59 59 58 55 53 51 51 51 51
234 235 237 239 240 239 237 233 229 228 232 233 228 223 229 238 241 240 242 244 246 249 251 255 261 265 267 272 275 279 282 284 286 296 311 311 290 262 221 195 189 185 175 163 162 160 162 181 195 185 171 166 167 170 170 166 160 160 162 161 161 161 158 157 155 153 149 146 145 143 144 143 137 133 129 124 121 118 112 104 94 86 79 73 66 62 61 60 59 59 58 56 53 51 50 49 48
233 234 236 237 238 238 238 234 230 229 232 233 230 225 228 236 243 245 244 244 246 248 251 255 261 266 268 271 273 278 282 281 279 286 298 301 286 260 231 200 194 192 184 170 166 175 169 178 199 197 179 169 168 171 172 172 167 164 167 167 166 166 164 162 162 162 159 154 151 150 150 149 147 143 140 137 134 129 120 111 97 85 79 71 63 59 58 60 60 58 58 57 55 53 51 49 47
233 233 234 235 235 236 236 234 231 231 234 236 235 230 229 235 242 245 245 245 248 251 253 255 259 265 267 269 272 274 276 277 275 277 286 293 285 262 238 211 201 197 192 179 171 183 174 176 197 205 187 174 172 173 175 176 173 170 171 172 169 168 166 164 165 166 167 164 159 158 158 157 156 151 148 147 144 137 128 117 103 89 80 69 58 54 54 57 59 59 58 57 56 54 52 50 47
233 233 234 234 233 234 236 234 232 234 236 238 238 234 230 231 238 244 245 246 248 251 253 254 256 262 264 266 268 270 271 272 272 271 275 283 281 265 246 224 208 205 201 192 179 183 180 178 194 205 194 183 179 176 177 179 177 174 174 175 174 172 171 171 172 172 172 171 168 167 169 168 164 160 156 154 151 147 138 126 110 97 85 69 55 50 51 55 56 56 56 55 54 52 51 49 47
234 233 233 233 233 234 236 235 232 234 236 237 236 236 233 232 237 245 248 247 248 250 252 254 254 257 259 261 264 266 268 268 267 267 268 272 274 267 251 232 216 210 209 205 193 187 187 184 192 203 199 191 186 181 181 181 181 181 179 179 179 178 178 179 181 181 181 179 179 178 178 177 175 171 166 162 161 158 151 140 122 108 93 73 55 46 47 51 54 53 53 51 48 46 45 43 42
232 232 233 233 234 234 235 234 232 232 235 235 235 237 237 234 235 243 247 248 250 251 251 251 251 251 253 256 260 262 264 265 263 262 263 265 267 266 255 239 224 216 214 215 207 195 194 192 193 200 201 195 191 189 186 185 186 186 183 181 181 182 184 185 185 186 187 187 187 186 185 184 186 184 180 175 172 168 164 157 140 126 113 86 59 46 42 46 50 50 48 46 43 39 37 34 32
232 233 232 233 233 233 233 232 231 232 234 236 235 237 238 236 235 239 245 249 251 250 248 248 247 247 249 252 257 259 261 262 262 260 260 261 261 263 259 245 229 220 216 220 218 204 198 200 197 199 202 198 196 195 192 191 192 190 186 184 183 186 189 189 188 188 190 191 191 192 191 192 194 195 195 191 186 181 179 173 161 152 148 121 65 47 42 42 44 44 42 41 37 33 30 27 26
233 233 233 234 234 234 234 233 232 233 234 236 236 237 238 238 237 239 242 245 246 245 244 245 247 247 248 249 253 257 258 260 262 262 260 258 258 258 257 249 234 223 217 219 222 213 202 201 200 200 201 201 200 201 199 198 198 194 189 187 187 190 192 192 191 191 192 193 195 197 197 199 201 203 204 204 201 197 196 190 180 177 181 176 49 32 32 33 33 33 33 30 29 26 23 22 21
233 233 233 234 236 236 235 234 234 235 235 236 237 237 237 238 239 238 237 238 241 245 246 246 248 249 249 249 251 255 258 259 262 263 261 258 258 256 254 249 240 229 221 219 222 222 212 204 202 201 200 202 204 204 204 205 203 198 193 191 192 195 197 198 197 197 196 196 199 201 202 204 207 209 210 211 211 210 210 205 197 196 202 209 259 1 11 16 19 20 19 17 17 16 16 16 15
233 233 233 235 236 237 236 234 236 236 235 236 237 237 236 237 238 236 235 237 241 247 248 247 248 249 250 251 251 254 257 259 260 261 261 259 257 255 252 249 244 236 228 222 221 225 222 212 206 202 200 203 206 207 208 209 207 202 197 196 197 200 201 202 204 205 204 204 205 206 207 209 211 214 215 215 216 216 216 213 212 209 212 220 238 297 338 354 359 2 4 6 6 6 8 9 8
233 234 234 235 237 238 237 237 237 236 234 236 236 235 234 235 236 236 236 239 241 244 248 248 249 251 252 252 252 254 256 258 259 259 259 258 254 253 252 249 244 238 233 226 222 223 224 218 211 206 203 204 208 210 210 211 211 206 201 201 203 205 206 206 208 210 210 212 213 213 212 213 215 216 218 219 219 219 220 221 224 225 223 224 232 253 289 323 339 346 353 356 357 357 358 0 1
233 234 234 236 238 239 239 238 238 235 234 235 234 232 231 233 236 236 236 238 240 243 248 250 251 252 253 252 252 254 256 257 258 258 258 258 254 250 249 247 243 238 236 231 224 222 223 219 213 209 207 207 212 215 214 215 214 209 205 206 207 209 210 209 210 211 212 215 216 216 216 216 217 220 221 223 223 225 228 230 234 236 235 232 234 242 259 287 310 328 343 347 347 348 350 353 355
231 232 232 233 235 237 237 236 235 232 232 234 233 230 231 234 237 237 236 239 241 243 247 251 253 254 254 253 252 253 255 256 257 257 256 256 254 249 246 245 242 238 237 235 227 222 223 219 211 207 208 209 213 217 218 218 218 214 209 210 212 212 212 211 211 212 214 216 216 216 217 219 221 223 226 227 229 232 235 239 242 245 245 244 241 242 249 264 281 305 324 332 335 337 342 346 349
231 232 232 232 234 235 234 233 232 230 231 233 233 231 231 235 237 238 238 240 242 244 247 251 254 255 255 254 252 250 251 253 255 256 255 254 253 249 245 244 242 238 237 237 230 223 223 222 214 206 206 210 214 217 220 220 220 217 214 214 215 215 213 212 212 214 216 218 218 218 219 222 225 227 228 230 233 236 240 243 247 251 253 254 252 249 251 260 272 290 307 316 320 324 330 336 341
232 233 233 233 234 234 232 232 231 231 232 235 234 232 232 236 240 241 240 241 242 244 247 249 252 254 254 253 251 248 248 249 251 253 253 251 250 249 245 243 241 238 236 236 231 225 224 225 220 210 206 209 214 217 219 220 221 219 216 216 217 217 215 213 213 215 217 219 220 221 223 226 228 230 230 231 234 237 241 245 248 252 256 259 260 261 263 267 276 285 296 304 308 313 319 326 332
230 231 230 231 232 232 232 233 232 232 233 235 235 233 234 238 242 243 242 242 243 244 246 247 249 252 253 252 250 247 246 246 247 249 249 248 247 246 243 241 240 238 235 233 231 226 223 224 222 215 208 209 214 217 218 220 221 219 217 217 219 220 217 214 213 214 216 218 220 222 225 228 230 230 231 232 234 238 241 245 248 252 257 262 266 270 273 277 281 286 292 297 301 305 309 316 323
229 229 228 230 231 232 233 234 234 234 235 236 236 234 234 238 242 243 242 241 242 242 243 244 246 249 250 250 249 246 244 244 243 243 244 243 242 241 240 239 239 238 235 232 231 227 223 222 221 217 210 210 217 221 221 222 223 222 220 219 220 221 218 214 213 215 217 218 219 222 225 228 230 230 231 232 234 238 243 247 250 253 257 263 270 275 279 282 285 288 291 295 298 300 302 308 315
229 228 229 230 231 231 232 232 232 232 231 233 235 233 233 237 241 242 241 241 241 241 242 243 244 246 249 250 250 248 245 243 242 241 239 238 238 238 237 236 237 238 236 233 232 229 226 224 223 220 213 209 215 223 225 225 225 225 223 221 221 221 217 214 215 216 217 217 218 220 222 225 227 229 230 231 234 238 243 248 253 256 259 264 272 278 282 285 287 289 291 294 295 296 299 304 310
231 231 232 233 233 234 234 233 232 232 231 231 233 233 232 235 239 241 241 241 242 242 242 243 243 245 249 250 251 250 248 245 243 242 239 237 236 235 235 234 235 237 236 232 231 230 227 225 225 224 219 211 212 220 225 226 225 225 224 224 224 224 220 217 217 217 216 217 218 219 220 220 222 225 227 231 235 239 244 249 254 258 262 267 273 279 284 287 289 290 290 291 291 293 298 303 309
231 231 232 233 233 234 234 234 235 236 235 235 236 235 233 235 238 240 241 242 242 242 243 243 244 245 247 249 250 249 249 247 245 243 242 239 236 234 233 233 234 235 234 232 230 229 228 226 225 226 224 218 213 217 224 227 227 226 226 226 227 227 224 220 219 217 217 218 218 218 218 218 219 221 225 231 236 241 245 249 255 260 265 270 275 280 285 288 289 289 289 289 290 293 298 303 309